Jefferson, OH

10:26 PM EDT on August 30, 2016 (GMT -0400)
Ashtabula County

Weather History for KHZY - October, 2012

Change the Weather History Date:

Tuesday, October 23, 2012

  Actual Average (KYNG) Record (KYNG)
Temperature  
Mean Temperature 60 °F 49 °F  
Max Temperature 66 °F 58 °F 78 °F (1931)
Min Temperature 57 °F 40 °F 23 °F (1969)
Degree Days  
Heating Degree Days 4 16  
Month to date heating degree days 300  
Since 1 July heating degree days 483  
Cooling Degree Days 0 0  
Month to date cooling degree days 3  
Year to date cooling degree days 541  
Growing Degree Days 10 (Base 50)    
Moisture  
Dew Point 55 °F    
Average Humidity 82    
Maximum Humidity 94    
Minimum Humidity 67    
Precipitation  
Precipitation 0.15 in 0.08 in 2.05 in (2007)
Month to date precipitation 2.07  
Year to date precipitation 32.04  
Snow  
Snow 0.00 in 0.00 in - ()
Month to date snowfall 0.4  
Since 1 July snowfall 0.4  
Since 1 September snowfall 0.4  
Snow Depth -    
Sea Level Pressure  
Sea Level Pressure 30.02 in    
Wind  
Wind Speed 5 mph (SSW)    
Max Wind Speed 12 mph    
Max Gust Speed -    
Visibility 8 miles    
Events Rain    
T = Trace of Precipitation, MM = Missing Value Source: NWS Daily Summary

Daily Weather History Graph

Daily Weather History Graph

Search for Another Location

Airport or City:

Trip Planner

Search our weather history database for the weather conditions in past years. The results will help you decide how hot, cold, wet, or windy it might be!

Date:

Astronomy

Oct. 23, 2012 Rise Set
Actual Time 7:44 AM EDT 6:28 PM EDT
Civil Twilight 7:16 AM EDT 6:56 PM EDT
Nautical Twilight 6:43 AM EDT 7:29 PM EDT
Astronomical Twilight 6:11 AM EDT 8:01 PM EDT
Moon 3:16 PM EDT (10/23) 1:30 AM EDT (10/23)
Length of Visible Light 11h 40m
Length of Day
10h 43m
Waxing Gibbous, 66% of the Moon is Illuminated
Oct 23
Waxing Gibbous
Oct 29
Full
Nov 6
Last Quarter
Nov 13
New
Nov 20
First Quarter

Hourly Weather History & Observations

Time (EDT) Temp. Dew Point Humidity Pressure Visibility Wind Dir Wind Speed Gust Speed Precip Events Conditions
2:53 AM 61.0 °F 50.0 °F 67% 30.03 in 10.0 mi South 4.6 mph - N/A   Overcast
3:53 AM 61.0 °F 51.1 °F 70% 30.03 in 10.0 mi South 3.5 mph - N/A   Overcast
4:53 AM 59.0 °F 52.0 °F 78% 30.02 in 10.0 mi Calm Calm - 0.00 in Rain Light Rain
5:53 AM 57.9 °F 54.0 °F 87% 30.02 in 10.0 mi SE 3.5 mph - 0.01 in Rain Light Rain
6:53 AM 57.9 °F 54.0 °F 87% 30.02 in 10.0 mi SE 4.6 mph - 0.01 in   Overcast
7:53 AM 60.1 °F 54.0 °F 80% 30.01 in 10.0 mi South 11.5 mph - N/A   Overcast
8:53 AM 60.1 °F 53.1 °F 78% 30.02 in 10.0 mi South 4.6 mph - 0.00 in Rain Light Rain
9:19 AM 59.0 °F 53.6 °F 82% 30.04 in 1.8 mi SW 6.9 mph - 0.01 in Rain Heavy Rain
9:26 AM 57.2 °F 55.4 °F 94% 30.04 in 2.5 mi SSW 5.8 mph - 0.01 in Rain Light Rain
9:34 AM 59.0 °F 55.4 °F 88% 30.03 in 4.0 mi SSW 6.9 mph - 0.01 in Rain Light Rain
9:53 AM 57.9 °F 55.0 °F 90% 30.02 in 10.0 mi SSE 5.8 mph - 0.01 in Rain Light Rain
10:42 AM 59.0 °F 55.4 °F 88% 30.02 in 1.8 mi South 9.2 mph - 0.00 in Rain Heavy Rain
10:51 AM 59.0 °F 55.4 °F 88% 30.01 in 3.0 mi South 8.1 mph - 0.01 in Rain Light Rain
10:53 AM 59.0 °F 55.0 °F 87% 30.01 in 7.0 mi South 6.9 mph - 0.01 in Rain Light Rain
11:53 AM 63.0 °F 57.0 °F 81% 30.00 in 10.0 mi SSW 4.6 mph - 0.01 in   Overcast
1:53 PM 64.9 °F 55.9 °F 73% 30.01 in 10.0 mi WSW 10.4 mph - 0.01 in   Overcast
2:53 PM 64.0 °F 55.9 °F 75% 30.01 in 10.0 mi West 9.2 mph - 0.01 in   Overcast
3:02 PM 62.6 °F 55.4 °F 77% 30.01 in 10.0 mi West 6.9 mph - N/A   Overcast
3:28 PM 64.4 °F 55.4 °F 73% 30.00 in 10.0 mi WSW 5.8 mph - 0.01 in   Mostly Cloudy
3:49 PM 64.4 °F 55.4 °F 73% 30.01 in 10.0 mi SSW 6.9 mph - 0.01 in   Mostly Cloudy
3:53 PM 64.0 °F 57.0 °F 78% 30.01 in 10.0 mi SSW 10.4 mph - 0.01 in   Mostly Cloudy
4:53 PM 64.0 °F 57.9 °F 80% 30.01 in 10.0 mi SSW 5.8 mph - 0.01 in   Overcast
5:24 PM 64.4 °F 57.2 °F 77% 30.02 in 10.0 mi SW 4.6 mph - 0.01 in   Mostly Cloudy
5:53 PM 63.0 °F 57.0 °F 81% 30.02 in 10.0 mi SW 3.5 mph - 0.01 in   Mostly Cloudy
6:53 PM 62.1 °F 57.0 °F 84% 30.04 in 10.0 mi Calm Calm - 0.01 in   Partly Cloudy
7:53 PM 62.1 °F 57.0 °F 84% 30.05 in 10.0 mi South 3.5 mph - 0.01 in   Overcast
8:53 PM 60.1 °F 57.0 °F 90% 30.05 in 10.0 mi Calm Calm - 0.01 in   Overcast
9:53 PM 59.0 °F 55.9 °F 90% 30.05 in 8.0 mi Calm Calm - 0.01 in   Overcast
10:53 PM 60.1 °F 57.9 °F 93% 30.07 in 10.0 mi SSW 4.6 mph - 0.00 in   Overcast
11:53 PM 60.1 °F 57.9 °F 93% 30.06 in 7.0 mi Calm Calm - 0.01 in Rain Light Rain